User: anonymous   Login
Location: Unspecified
(0.0000°N, 0.0000°E)
Time: 01:34:26
(UTC+00:00)
Language:

BEESAT - Orbit

View from above orbital plane
View from above orbital plane
View from above satellite
View from above satellite

Ground track
Ground track

The orbit data is extracted from the following two-line orbital elements,

1 35933U 09051C   18174.37266469 +.00000118 +00000-0 +37550-4 0  9996
2 35933 098.5499 327.2336 0005552 192.3688 167.7373 14.56271678464363
Epoch (UTC): 23 June 2018 08:56:38
Eccentricity: 0.0005552
inclination: 98.5499°
perigee height: 701 km
apogee height: 709 km
right ascension of ascending node: 327.2336°
argument of perigee: 192.3688°
revolutions per day: 14.56271678
mean anomaly at epoch: 167.7373°
orbit number at epoch: 46436

The dashed part of the orbit path shows where the satellite is in the earth's shadow,  

DLR